Weather in Bochov

Czech Republic     50°09′03″N   13°02′56″E
temp.,
°C
wind,
m/s
gust,
m/s
humid.,
%
clouds,
%
prec.,
mm/h
press.,
hPa
HPBL,
m
26 october, tue
tue2623:00+5wsw2277100 0.0 102216
02:00+4w2284100 0.0 102218
05:00+4wsw228747 0.0 102221
08:00+3wsw2286100 0.0 102233
11:00+8wsw3882100 0.0 1023466
14:00+9wsw498574 0.0 1022706
17:00+10sw368021 0.0 1022478
20:00+7wsw3796100 0.0 1025212
27 october, wed
wed2723:00+7wsw389597 0.0 1025324
02:00+5wsw2598100 0.0 1026122
05:00+5wsw369873 0.0 1026196
08:00+5w369797 0.0 1027196
11:00+9w368158 0.0 1027319
14:00+12wsw356481 0.0 1025574
17:00+11wsw247574 0.0 102497
20:00+7w119067 0.0 102514
28 october, thu
thu2823:00+6wsw118933 0.0 102611
02:00+6sw018619 0.0 102510
05:00+5e11855 0.0 102410
08:00+5e21894 0.0 102512
11:00+10e35675 0.0 1024345
14:00+12e465916 0.0 1022616
17:00+10ese24685 0.0 102085
20:00+6ese118111 0.0 102111
29 october, fri
fri2923:00+5e118365 0.0 102110
02:00+4e118554 0.0 102010
05:00+3e1185100 0.0 102010
08:00+2e118581 0.0 101911
11:00+8e2263100 0.0 1018220
14:00+10e23565 0.0 1017384
17:00+8e11690 0.0 101626
20:00+5sw11750 0.0 101710
30 october, sat
sat3023:00+5s11745 0.0 101710
02:00+4wsw1180100 0.0 101712
05:00+5ssw1181100 0.0 101712
08:00+4s1183100 0.0 101812
11:00+9se1167100 0.0 101799
14:00+11ese2261100 0.0 1017260
17:00+8e1177100 0.0 101823
20:00+7ene1177100 0.0 101819